This is the latest recevied weather packets stored in our database for station/object PU5BHV. If no packets are shown the sender has not sent any weather packets the latest 10 day(s).
| Time | Temp. | Humidity | Pressure | Rain* | Wind** | Luminosity | Snow |
|---|---|---|---|---|---|---|---|
| 1777745621 | 21.11° C | 96% | 1015.3 hPa | 0 mm | - | 43 W/m² | - |
| 1777745319 | 21.67° C | 97% | 1015.3 hPa | 0 mm | - | 49 W/m² | - |
| 1777745016 | 21.67° C | 97% | 1015.4 hPa | 0 mm | - | 49 W/m² | - |
| 1777744712 | 21.67° C | 97% | 1015.4 hPa | 0 mm | - | 47 W/m² | - |
| 1777744406 | 21.11° C | 97% | 1015.5 hPa | 0 mm | - | 42 W/m² | - |
| 1777744103 | 21.11° C | 96% | 1015.4 hPa | 0 mm | - | 41 W/m² | - |
| 1777743800 | 21.11° C | 97% | 1015.2 hPa | 0 mm | - | 39 W/m² | - |
| 1777743497 | 21.67° C | 96% | 1015.3 hPa | 0 mm | - | 35 W/m² | - |
| 1777743194 | 21.67° C | 96% | 1014.9 hPa | 0 mm | - | 34 W/m² | - |
| 1777742892 | 21.11° C | 95% | 1014.8 hPa | 0 mm | - | 37 W/m² | - |
| 1777742588 | 21.11° C | 95% | 1014.5 hPa | 0 mm | - | 37 W/m² | - |
| 1777742284 | 21.11° C | 97% | 1014.7 hPa | 0 mm | - | 38 W/m² | - |
| 1777741981 | 21.67° C | 96% | 1014.3 hPa | 0 mm | - | 47 W/m² | - |
| 1777741679 | 21.67° C | 96% | 1014 hPa | 0 mm | - | 43 W/m² | - |
| 1777741375 | 21.67° C | 95% | 1014.5 hPa | 0 mm | - | 42 W/m² | - |
| 1777741071 | 21.67° C | 95% | 1014.4 hPa | 0 mm | - | 47 W/m² | - |
| 1777740768 | 21.67° C | 95% | 1014.5 hPa | 0 mm | - | 52 W/m² | - |
| 1777740464 | 21.67° C | 95% | 1014.3 hPa | 0 mm | - | 55 W/m² | - |
| 1777740162 | 21.11° C | 96% | 1014 hPa | 0 mm | - | 58 W/m² | - |
| 1777739858 | 21.67° C | 96% | 1013.7 hPa | 0 mm | - | 59 W/m² | - |
| 1777739555 | 21.67° C | 95% | 1013.7 hPa | 0 mm | - | 49 W/m² | - |
| 1777739252 | 21.67° C | 94% | 1013.7 hPa | 0 mm | - | 43 W/m² | - |
| 1777738948 | 21.67° C | 93% | 1014.1 hPa | 0 mm | - | 43 W/m² | - |
| 1777738645 | 21.67° C | 93% | 1013.9 hPa | 0 mm | - | 44 W/m² | - |
| 1777738342 | 21.67° C | 93% | 1013.8 hPa | 0 mm | - | 51 W/m² | - |
* Rain latest hour (hover to see other rain measurements)
** Current wind speed in m/s (hover to see current wind gust speed)